Torna al catalogo

STARLINK-31348

AttivoComunicazioniVLEO
NORAD 59172·PAYLOAD·🇺🇸 United States

Lanciato Mar 4, 2024 da Cape Canaveral Space Force Station

Loading…

Prossimi Passaggi (prossime 24 ore)

TLE

AggiornatoSource: CelesTrak SupGP

Epoca: Sep 15, 2026, 03:23 UTC

1 59172C 24044W   26258.14145833 -.00029964  00000+0 -10853-2 0  2588
2 59172  43.0008  70.2828 0001569 267.3531 357.3368 15.27593363    16

Traccia STARLINK-31348 in tempo reale con AllMySat

Download on the App Store